Weather in Chernovka

Russia / Amur Oblast     51°38′42″N   128°08′53″E
temp.,
°C
wind,
m/s
gust,
m/s
humid.,
%
clouds,
%
prec.,
mm/h
press.,
hPa
HPBL,
m
14 august, sun
sun1400:00+13sw00935 0.0 100511
03:00+12sse01955 0.0 100511
06:00+13sw1195100 0.0 100510
09:00+18ssw1185100 0.0 1006343
12:00+23sw11532 0.2 10041304
15:00+24wsw124662 0.2 10031948
18:00+20s257855 0.1 1003124
21:00+18s2380100 0.1 100447
15 august, mon
mon1500:00+18ssw2283100 0.0 100427
03:00+16ssw238965 0.2 100452
06:00+16ne019120 0.0 100413
09:00+21s22700 0.0 1005399
12:00+25ssw22560 0.0 10041159
15:00+25se01523 1.8 10031248
18:00+24ne016492 0.0 1003165
21:00+20wsw117040 0.0 100411
16 august, tue
tue1600:00+17w11820 0.1 100411
03:00+16wnw11870 0.1 100411
06:00+16w11860 0.0 100411
09:00+22s22650 0.0 1004327
12:00+26ssw34490 0.0 10041327
15:00+28ssw44423 0.0 10022191
18:00+26sse36611 0.0 1002226
21:00+20s41180100 0.0 1003211
17 august, wed
wed1700:00+18s4885100 0.0 1003155
03:00+17s37855 0.0 1003111
06:00+16s38855 0.0 1003134
09:00+23ssw576278 0.0 1003407
12:00+22s496942 0.0 1003412
15:00+30ssw793870 0.0 10012722
18:00+27sw61249100 0.0 1001793
21:00+22ssw51364100 0.0 1001382
18 august, thu
thu1800:00+22ssw51162100 0.0 1002482
03:00+17wsw3486100 0.2 100264
06:00+17ssw2495100 1.5 1002105
09:00+18s4893100 2.5 1002329
12:00+23s696996 0.1 10011224
15:00+21sw598628 4.3 1001475
18:00+22w14855 3.6 1001281
21:00+18nne2293100 5.9 100126